sat.trackr.live / text

‹ back to catalog

STARLINK-5587

NORAD 57245 · 2023-094AD

PAYLOAD ACTIVE UNKNOWN

§ Identity

Operator
Country
US
Launch date
2023-07-07
Launch site
AFWTR
Launch vehicle
Mass (kg)
RCS (m²)

Purposes: comms

External: N2YO · Heavens-Above · Gunter

§ Orbital elements

Epoch: 2026-05-25T04:09:44.479872Z

Period
94.27 min
Inclination
43.0046°
Eccentricity
0.0001623
Mean motion
15.27574186 rev/d
Perigee alt
482.0 km
Apogee alt
484.2 km
Semi-major
6,861.2 km
B*
9.1351e-6
RAAN
308.2515°
Arg perigee
284.9983°
Mean anomaly
75.0689°
Rev number
15,893

§ Raw data

STARLINK-55871 57245U 23094AD  26145.17343148 -.00000011  00000+0  91351-5 0  99962 57245  43.0046 308.2515 0001623 284.9983  75.0689 15.27574186158938

JSON: /api/v1/satellites/57245 · /tle

For live sub-satellite position, see the globe view (requires WebGL).

§ Visibility from observer

Set your observer location to see the next 7 days of passes ≥ 10°. The values pass through the URL so the page stays shareable.

No JS? Fill the form by hand. The geolocation button needs JavaScript.